This is the latest recevied weather packets stored in our database for station/object YO2LDK-13. If no packets are shown the sender has not sent any weather packets the latest 10 day(s).
| Time | Temp. | Humidity | Pressure | Rain* | Wind** | Luminosity | Snow |
|---|---|---|---|---|---|---|---|
| 1777447519 | 12.78° C | 40% | 1009.8 hPa | 0 mm | - | 118 W/m² | - |
| 1777447219 | 12.22° C | 41% | 1009.5 hPa | 0 mm | - | 114 W/m² | - |
| 1777446919 | 12.22° C | 41% | 1009.5 hPa | 0 mm | - | 109 W/m² | - |
| 1777446619 | 11.67° C | 42% | 1009.5 hPa | 0 mm | - | 107 W/m² | - |
| 1777446319 | 11.67° C | 43% | 1009.5 hPa | 0 mm | - | 99 W/m² | - |
| 1777446019 | 11.67° C | 44% | 1009.1 hPa | 0 mm | - | 99 W/m² | - |
| 1777445720 | 11.67° C | 43% | 1009.5 hPa | 0 mm | - | 104 W/m² | - |
| 1777445420 | 11.67° C | 44% | 1009.5 hPa | 0 mm | - | 104 W/m² | - |
| 1777444822 | 11.67° C | 44% | 1009.1 hPa | 0 mm | - | 104 W/m² | - |
| 1777444520 | 11.67° C | 44% | 1008.8 hPa | 0 mm | - | 198 W/m² | - |
| 1777444219 | 11.67° C | 44% | 1009.1 hPa | 0 mm | - | 139 W/m² | - |
| 1777443920 | 11.67° C | 45% | 1009.1 hPa | 0 mm | - | 90 W/m² | - |
| 1777443619 | 11.67° C | 46% | 1009.1 hPa | 0 mm | - | 85 W/m² | - |
| 1777443319 | 11.11° C | 48% | 1009.5 hPa | 0 mm | - | 73 W/m² | - |
| 1777443020 | 11.11° C | 46% | 1009.1 hPa | 0 mm | - | 76 W/m² | - |
| 1777442719 | 11.11° C | 46% | 1009.1 hPa | 0 mm | - | 70 W/m² | - |
| 1777442420 | 11.67° C | 45% | 1009.1 hPa | 0 mm | - | 74 W/m² | - |
| 1777442119 | 11.11° C | 47% | 1009.1 hPa | 0 mm | - | 81 W/m² | - |
| 1777441820 | 10.56° C | 47% | 1009.1 hPa | 0 mm | - | 78 W/m² | - |
| 1777441519 | 10.56° C | 48% | 1008.8 hPa | 0 mm | - | 75 W/m² | - |
| 1777441219 | 10.56° C | 48% | 1008.8 hPa | 0 mm | - | 63 W/m² | - |
| 1777440920 | 10° C | 49% | 1008.8 hPa | 0 mm | - | 59 W/m² | - |
| 1777440321 | 10° C | 50% | 1008.8 hPa | 0 mm | - | 51 W/m² | - |
| 1777440019 | 10° C | 50% | 1008.8 hPa | 0 mm | - | 50 W/m² | - |
| 1777439719 | 10° C | 50% | 1008.5 hPa | 0 mm | - | 52 W/m² | - |
* Rain latest hour (hover to see other rain measurements)
** Current wind speed in m/s (hover to see current wind gust speed)